This is the latest recevied weather packets stored in our database for station/object KS5S. If no packets are shown the sender has not sent any weather packets the latest 1 day(s).
| Time | Temp. | Humidity | Pressure | Rain* | Wind** | Luminosity | Snow |
|---|---|---|---|---|---|---|---|
| 1778016392 | 32.78° C | 57% | 1001.8 hPa | 0 mm | 1.34 m/s, 271° | 688 W/m² | - |
| 1778016091 | 32.78° C | 55% | 1001.7 hPa | 0 mm | 3.13 m/s, 177° | 551 W/m² | - |
| 1778015787 | 32.78° C | 56% | 1002 hPa | 0 mm | 2.24 m/s, 209° | 672 W/m² | - |
| 1778015484 | 32.78° C | 54% | 1002.1 hPa | 0 mm | 2.68 m/s, 193° | 685 W/m² | - |
| 1778015181 | 33.33° C | 53% | 1001.7 hPa | 0 mm | 1.79 m/s, 247° | 662 W/m² | - |
| 1778014878 | 33.33° C | 55% | 1002.1 hPa | 0 mm | 2.24 m/s, 211° | 648 W/m² | - |
| 1778014575 | 32.78° C | 54% | 1002.2 hPa | 0 mm | 1.79 m/s, 238° | 811 W/m² | - |
| 1778014273 | 32.78° C | 56% | 1002.2 hPa | 0 mm | 2.68 m/s, 250° | 652 W/m² | - |
| 1778013970 | 32.78° C | 55% | 1002.2 hPa | 0 mm | 3.13 m/s, 220° | 648 W/m² | - |
| 1778013668 | 32.78° C | 58% | 1002.4 hPa | 0 mm | 1.79 m/s, 177° | 902 W/m² | - |
| 1778013364 | 32.78° C | 57% | 1002.3 hPa | 0 mm | 1.79 m/s, 238° | 777 W/m² | - |
| 1778013061 | 32.78° C | 57% | 1002.2 hPa | 0 mm | 1.79 m/s, 237° | 581 W/m² | - |
| 1778012757 | 32.78° C | 58% | 1002.6 hPa | 0 mm | 1.79 m/s, 240° | 786 W/m² | - |
| 1778012453 | 32.78° C | 56% | 1002.5 hPa | 0 mm | 2.24 m/s, 241° | 814 W/m² | - |
| 1778012150 | 32.78° C | 56% | 1002.6 hPa | 0 mm | 2.68 m/s, 217° | 834 W/m² | - |
| 1778011848 | 32.78° C | 57% | 1002.5 hPa | 0 mm | 1.79 m/s, 194° | 850 W/m² | - |
| 1778011545 | 32.78° C | 55% | 1002.7 hPa | 0 mm | 2.24 m/s, 224° | 853 W/m² | - |
| 1778011242 | 32.22° C | 59% | 1002.5 hPa | 0 mm | 1.79 m/s, 241° | 928 W/m² | - |
| 1778010938 | 31.67° C | 59% | 1002.6 hPa | 0 mm | 2.24 m/s, 202° | 776 W/m² | - |
| 1778010636 | 31.67° C | 58% | 1002.8 hPa | 0 mm | 1.79 m/s, 223° | 691 W/m² | - |
| 1778010333 | 31.67° C | 60% | 1002.6 hPa | 0 mm | 1.34 m/s, 202° | 723 W/m² | - |
| 1778010028 | 31.67° C | 60% | 1002.6 hPa | 0 mm | 3.13 m/s, 225° | 1027 W/m² | - |
| 1778009726 | 31.11° C | 60% | 1003 hPa | 0 mm | 1.34 m/s, 240° | 658 W/m² | - |
| 1778009423 | 31.67° C | 62% | 1003 hPa | 0 mm | 2.24 m/s, 187° | 609 W/m² | - |
| 1778009121 | 31.11° C | 61% | 1003 hPa | 0 mm | 4.02 m/s, 208° | 358 W/m² | - |
* Rain latest hour (hover to see other rain measurements)
** Current wind speed in m/s (hover to see current wind gust speed)